Weather History for Springfield, VT

Change the Weather History Date:

Saturday, July 6, 2013

  Actual Average Record
Temperature  
Mean Temperature 77 °F 69 °F  
Max Temperature 87 °F 81 °F 96 °F (2010)
Min Temperature 66 °F 57 °F 46 °F (1997)
Cooling Degree Days 12 4  
Month to date cooling degree days 71 24  
Year to date cooling degree days 184 100  
Since 1 June cooling degree days 160 88  
Growing Degree Days 28 (Base 50)    
Moisture  
Dew Point 68 °F    
Average Humidity 73    
Maximum Humidity 100    
Minimum Humidity 45    
Precipitation  
Precipitation T in 0.13 in 0.17 in (2011)
Month to date precipitation 2.08 0.75  
Year to date precipitation 20.19 20.91  
Sea Level Pressure  
Sea Level Pressure 30.08 in    
Wind  
Wind Speed 4 mph (West)    
Max Wind Speed 15 mph    
Max Gust Speed 20 mph    
Visibility 6 miles    
Events Fog    
T = Trace of Precipitation, MM = Missing Value Source: NWS Daily Summary

Daily Weather History Graph

Daily Weather History Graph

Search for Another Location

Airport:

Trip Planner

Search our weather history database for the weather conditions in past years. The results will help you decide how hot, cold, wet, or windy it might be!

Date:

Astronomy

Jul. 06, 2013 Rise Set
Actual Time 5:16 AM EDT 8:32 PM EDT
Civil Twilight 4:41 AM EDT 9:07 PM EDT
Nautical Twilight 3:55 AM EDT 9:53 PM EDT
Astronomical Twilight 3:00 AM EDT 10:48 PM EDT
Moon 4:01 AM EDT (7/6) 7:10 PM EDT (7/6)
Length of Visible Light 16h 26m
Length of Day
15h 16m
Waning Crescent, 2% of the Moon is Illuminated
Jul 6
Waning Crescent
Jul 8
New
Jul 15
First Quarter
Jul 22
Full
Jul 29
Last Quarter

Hourly Weather History & Observations

Time (EDT) Temp. Heat Index Dew Point Humidity Pressure Visibility Wind Dir Wind Speed Gust Speed Precip Events Conditions
12:06 AM 71.6 °F - 71.6 °F 100% 30.10 in 8.0 mi Calm Calm - N/A   Mostly Cloudy
12:52 AM 71.6 °F - 69.8 °F 94% 30.10 in 10.0 mi Calm Calm - N/A   Scattered Clouds
12:54 AM 71.1 °F - 70.0 °F 96% 30.09 in 10.0 mi Calm Calm - N/A   Scattered Clouds
1:02 AM 71.6 °F - 69.8 °F 94% 30.10 in 8.0 mi Calm Calm - N/A   Mostly Cloudy
1:17 AM 71.6 °F - 69.8 °F 94% 30.10 in 8.0 mi Calm Calm - N/A   Mostly Cloudy
1:54 AM 71.1 °F - 70.0 °F 96% 30.09 in 10.0 mi Calm Calm - 0.00 in   Partly Cloudy
2:54 AM 70.0 °F - 69.1 °F 97% 30.09 in 3.0 mi Calm Calm - N/A   Scattered Clouds
3:01 AM 69.8 °F - 69.8 °F 100% 30.10 in 3.0 mi Calm Calm - N/A   Mostly Cloudy
3:04 AM 69.8 °F - 69.8 °F 100% 30.10 in 2.5 mi Calm Calm - N/A   Scattered Clouds
3:12 AM 69.8 °F - 69.8 °F 100% 30.10 in 1.8 mi Calm Calm - N/A   Mostly Cloudy
3:27 AM 69.8 °F - 69.8 °F 100% 30.10 in 0.5 mi Calm Calm - N/A Fog Fog
3:54 AM 69.1 °F - 69.1 °F 100% 30.09 in 0.8 mi Calm Calm - N/A   Mist
4:07 AM 69.8 °F - 69.8 °F 100% 30.10 in 0.2 mi Calm Calm - N/A Fog Fog
4:16 AM 69.8 °F - 69.8 °F 100% 30.10 in 0.8 mi Calm Calm - N/A   Mist
4:33 AM 69.8 °F - 68.0 °F 94% 30.09 in 1.2 mi Calm Calm - N/A   Overcast
4:51 AM 69.8 °F - 69.8 °F 100% 30.09 in 0.5 mi Calm Calm - N/A Fog Fog
4:54 AM 69.1 °F - 69.1 °F 100% 30.09 in 0.5 mi Calm Calm - N/A Fog Fog
5:20 AM 69.8 °F - 68.0 °F 94% 30.10 in 2.0 mi Calm Calm - N/A   Overcast
5:27 AM 68.0 °F - 68.0 °F 100% 30.10 in 7.0 mi Calm Calm - N/A   Mostly Cloudy
5:31 AM 68.0 °F - 68.0 °F 100% 30.10 in 1.8 mi Calm Calm - N/A   Mostly Cloudy
5:51 AM 68.0 °F - 68.0 °F 100% 30.10 in 0.8 mi Calm Calm - N/A   Mist
5:54 AM 68.0 °F - 68.0 °F 100% 30.09 in 1.5 mi Calm Calm - N/A   Scattered Clouds
5:56 AM 68.0 °F - 68.0 °F 100% 30.10 in 4.0 mi Calm Calm - N/A   Scattered Clouds
6:38 AM 69.8 °F - 68.0 °F 94% 30.11 in 10.0 mi Calm Calm - N/A   Overcast
6:54 AM 70.0 °F - 68.0 °F 93% 30.11 in 10.0 mi NE 3.5 mph - N/A   Overcast
7:40 AM 69.8 °F - 69.8 °F 100% 30.11 in 10.0 mi Calm Calm - N/A   Overcast
7:50 AM 71.6 °F - 69.8 °F 94% 30.11 in 10.0 mi Calm Calm - N/A   Mostly Cloudy
7:54 AM 71.1 °F - 69.1 °F 93% 30.10 in 10.0 mi Calm Calm - N/A   Mostly Cloudy
8:54 AM 73.0 °F - 70.0 °F 90% 30.10 in 10.0 mi Calm Calm - N/A   Overcast
9:54 AM 77.0 °F - 70.0 °F 79% 30.08 in 10.0 mi Calm Calm - N/A   Overcast
10:54 AM 81.0 °F 83.0 °F 66.0 °F 60% 30.08 in 10.0 mi WSW 6.9 mph - N/A   Partly Cloudy
11:40 AM 82.4 °F 84.6 °F 66.2 °F 58% 30.09 in 1.5 mi West 8.1 mph - N/A   Haze
11:54 AM 82.0 °F 83.8 °F 64.9 °F 56% 30.08 in 10.0 mi West 8.1 mph - N/A   Mostly Cloudy
12:54 PM 82.9 °F 85.0 °F 66.0 °F 56% 30.07 in 10.0 mi Variable 4.6 mph - N/A   Mostly Cloudy
1:54 PM 82.9 °F 85.0 °F 66.0 °F 56% 30.06 in 10.0 mi Variable 4.6 mph - N/A   Mostly Cloudy
2:54 PM 84.9 °F 86.6 °F 64.9 °F 51% 30.04 in 10.0 mi WSW 6.9 mph 16.1 mph N/A   Clear
3:54 PM 86.0 °F 87.6 °F 64.9 °F 49% 30.04 in 2.0 mi West 9.2 mph - N/A   Haze
4:05 PM 87.8 °F 88.5 °F 62.6 °F 43% 30.04 in 10.0 mi WNW 11.5 mph - N/A   Clear
4:15 PM 87.8 °F 88.5 °F 62.6 °F 43% 30.04 in 0.8 mi West 9.2 mph - N/A   Haze
4:30 PM 86.0 °F 86.6 °F 62.6 °F 45% 30.04 in 2.5 mi West 10.4 mph 19.6 mph N/A   Haze
4:37 PM 86.0 °F 86.6 °F 62.6 °F 45% 30.04 in 10.0 mi WNW 5.8 mph - N/A   Clear
4:54 PM 86.0 °F 86.8 °F 63.0 °F 46% 30.02 in 10.0 mi West 9.2 mph - N/A   Clear
5:54 PM 84.0 °F 84.9 °F 63.0 °F 49% 30.01 in 10.0 mi West 8.1 mph - N/A   Partly Cloudy
6:54 PM 84.0 °F 85.8 °F 64.9 °F 53% 30.01 in 10.0 mi West 4.6 mph - N/A   Clear
7:54 PM 80.1 °F 82.1 °F 66.0 °F 62% 30.02 in 10.0 mi Calm Calm - N/A   Clear
8:54 PM 73.9 °F - 68.0 °F 82% 30.03 in 10.0 mi West 4.6 mph - N/A   Clear
9:54 PM 71.1 °F - 66.9 °F 87% 30.04 in 10.0 mi East 3.5 mph - N/A   Clear
10:21 PM 71.6 °F - 66.2 °F 83% 30.05 in 2.0 mi Calm Calm - N/A   Haze
10:30 PM 69.8 °F - 66.2 °F 88% 30.06 in 9.0 mi Calm Calm - N/A   Clear
10:54 PM 70.0 °F - 66.9 °F 90% 30.05 in 9.0 mi Calm Calm - N/A   Clear
11:54 PM 68.0 °F - 66.0 °F 93% 30.06 in 8.0 mi NE 3.5 mph - N/A   Clear